Thermal, CA

7:41 AM PDT on June 23, 2018 (GMT -0700)
Desert Resorts Regional

Weather History for KTRM - October, 2017

Change the Weather History Date:

Sunday, October 8, 2017

  Actual Average Record
Temperature  
Mean Temperature 74 °F 76 °F  
Max Temperature 95 °F 94 °F 108 °F (1996)
Min Temperature 53 °F 58 °F 43 °F (1992)
Degree Days  
Heating Degree Days 0 0  
Month to date heating degree days 0 0  
Since 1 July heating degree days 0 0  
Cooling Degree Days 9 11  
Month to date cooling degree days 96 97  
Year to date cooling degree days 4160 3495  
Growing Degree Days 24 (Base 50)    
Moisture  
Dew Point 41 °F    
Average Humidity 37    
Maximum Humidity 64    
Minimum Humidity 10    
Precipitation  
Precipitation 0.00 in 0.01 in 0.00 in (2018)
Month to date precipitation 0.00 0.06  
Year to date precipitation 3.36 2.45  
Sea Level Pressure  
Sea Level Pressure 29.60 in    
Wind  
Wind Speed 6 mph (East)    
Max Wind Speed 21 mph    
Max Gust Speed 29 mph    
Visibility 10 miles    
Events      
T = Trace of Precipitation, MM = Missing Value Source: NWS Daily Summary

Daily Weather History Graph

Daily Weather History Graph

Search for Another Location

Airport or City:

Astronomy

Oct. 08, 2017 Rise Set
Actual Time 6:44 AM PDT 6:19 PM PDT
Civil Twilight 6:19 AM PDT 6:44 PM PDT
Nautical Twilight 5:50 AM PDT 7:12 PM PDT
Astronomical Twilight 5:21 AM PDT 7:41 PM PDT
Moon 8:51 PM PDT (10/8) 9:45 AM PDT (10/8)
Length of Visible Light 12h 24m
Length of Day
11h 34m
Waning Gibbous, 88% of the Moon is Illuminated
Oct 8
Waning Gibbous
Oct 12
Last Quarter
Oct 19
New
Oct 27
First Quarter
Nov 3
Full

Hourly Weather History & Observations

Time (PDT) Temp. Dew Point Humidity Pressure Visibility Wind Dir Wind Speed Gust Speed Precip Events Conditions
12:52 AM 63.0 °F 45.0 °F 52% 29.64 in 10.0 mi North 4.6 mph - N/A   Clear
1:52 AM 57.9 °F 43.0 °F 58% 29.66 in 10.0 mi Calm Calm - N/A   Clear
2:52 AM 59.0 °F 43.0 °F 55% 29.62 in 10.0 mi Calm Calm - N/A   Clear
3:52 AM 57.9 °F 39.9 °F 51% 29.61 in 10.0 mi Calm Calm - N/A   Clear
4:52 AM 57.9 °F 39.0 °F 49% 29.64 in 10.0 mi Variable 3.5 mph - N/A   Clear
5:52 AM 54.0 °F 41.0 °F 62% 29.62 in 10.0 mi SSE 3.5 mph - N/A   Clear
6:52 AM 57.0 °F 42.1 °F 57% 29.63 in 10.0 mi North 3.5 mph - N/A   Clear
7:52 AM 64.0 °F 42.1 °F 45% 29.64 in 10.0 mi North 3.5 mph - N/A   Clear
8:52 AM 75.0 °F 44.1 °F 33% 29.65 in 10.0 mi Calm Calm - N/A   Clear
9:52 AM 79.0 °F 53.1 °F 40% 29.65 in 10.0 mi South 5.8 mph - N/A   Clear
10:52 AM 84.9 °F 39.9 °F 20% 29.64 in 10.0 mi SSE 6.9 mph - N/A   Clear
11:52 AM 88.0 °F 37.9 °F 17% 29.62 in 10.0 mi SE 9.2 mph - N/A   Clear
12:52 PM 91.0 °F 37.0 °F 15% 29.61 in 10.0 mi SSE 5.8 mph - N/A   Clear
1:52 PM 91.9 °F 30.0 °F 11% 29.57 in 10.0 mi ESE 4.6 mph - N/A   Clear
2:52 PM 93.0 °F 28.0 °F 10% 29.56 in 10.0 mi South 4.6 mph - N/A   Clear
3:52 PM 93.9 °F 28.0 °F 10% 29.54 in 10.0 mi SSE 5.8 mph - N/A   Clear
4:52 PM 93.9 °F 28.0 °F 10% 29.53 in 10.0 mi SE 6.9 mph - N/A   Clear
5:52 PM 87.1 °F 37.0 °F 17% 29.52 in 10.0 mi SE 4.6 mph - N/A   Clear
6:52 PM 75.9 °F 42.1 °F 30% 29.53 in 10.0 mi NNW 3.5 mph - N/A   Clear
7:52 PM 84.0 °F 39.9 °F 21% 29.54 in 10.0 mi North 9.2 mph - N/A   Clear
8:52 PM 82.9 °F 48.9 °F 31% 29.55 in 5.0 mi NNW 18.4 mph 29.9 mph N/A   Haze
9:52 PM 81.0 °F 51.1 °F 35% 29.57 in 10.0 mi NW 11.5 mph - N/A   Clear
10:52 PM 79.0 °F 51.1 °F 38% 29.60 in 10.0 mi NW 16.1 mph 23.0 mph N/A   Clear
11:52 PM 78.1 °F 50.0 °F 37% 29.62 in 10.0 mi WNW 10.4 mph - N/A   Clear